Location: Zagreb
(45.8000°N, 16.0000°E)
Time: 14:54:52
(UTC+02:00)

Vanguard 2 - All Passes

Search period start: 19 July 2024 00:00
Search period end: 29 July 2024 00:00
Orbit: 552 x 2913 km, 32.9° (Epoch: 19 July)

Date Brightness Start Highest point End Pass type
(mag) Time Alt. Az. Time Alt. Az. Time Alt. Az.
19 Jul - 01:29:26 10° SW 01:33:28 23° S 01:38:57 10° SE visible
19 Jul - 03:36:53 10° SW 03:41:21 18° SSW 03:47:16 10° SSE visible
19 Jul - 23:37:27 10° SSW 23:40:11 16° SSE 23:43:24 10° SE night (unlit)
20 Jul - 01:43:35 10° SW 01:47:27 21° S 01:52:36 10° SE visible
20 Jul - 03:51:55 10° SW 03:55:24 14° SSW 03:59:39 10° S visible
20 Jul - 23:51:13 10° SW 23:54:05 17° S 23:57:29 10° SE night (unlit)
21 Jul - 01:57:52 10° SW 02:01:26 18° S 02:06:01 10° SSE visible
22 Jul - 00:05:08 10° SW 00:08:00 17° S 00:11:24 10° SE night (unlit)
22 Jul - 02:12:26 10° SW 02:15:26 15° S 02:19:06 10° SSE visible
22 Jul - 22:13:20 10° S 22:14:52 12° SSE 22:16:26 10° SE visible
23 Jul - 00:19:12 10° SW 00:21:56 16° S 00:25:08 10° SE night (unlit)
23 Jul - 02:27:40 10° SSW 02:29:26 11° SSW 02:31:23 10° S night (unlit)
23 Jul - 22:26:46 10° SSW 22:28:45 13° S 22:30:48 10° SE visible
24 Jul - 00:33:28 10° SW 00:35:52 14° S 00:38:37 10° SSE night (unlit)
24 Jul - 22:40:29 10° SSW 22:42:39 14° S 22:44:52 10° SE visible
25 Jul - 00:48:05 10° SSW 00:49:48 12° S 00:51:41 10° SSE night (unlit)
25 Jul - 20:48:18 10° S 20:49:27 11° S 20:50:33 10° SSE daylight
25 Jul - 22:54:25 10° SW 22:56:33 14° S 22:58:44 10° SSE visible
26 Jul - 21:01:18 10° SSW 21:03:21 13° S 21:05:16 10° SE visible
26 Jul - 23:08:34 10° SW 23:10:26 13° S 23:12:21 10° SSE visible
27 Jul - 21:14:48 10° SSW 21:17:15 14° S 21:19:30 10° SE visible
27 Jul - 23:23:08 10° SSW 23:24:19 11° S 23:25:30 10° S visible
28 Jul - 19:21:27 10° SSW 19:23:53 13° S 19:26:01 10° SE daylight
28 Jul - 21:28:34 10° SW 21:31:08 15° S 21:33:30 10° SSE visible
